IRIDIUM 33 DEB, 38477

Orbit data source: Space-Track

IRIDIUM 33 DEB, 38477 is space debris in LEO originally from a launch on Sun, 14 Sep 1997 UTC launched from the Tyuratam Missile And Space Complex (TTMTR). The debris from Iridium 33, an American commercial communications satellite, has been tracked extensively since its accidental collision with the defunct Russian satellite Cosmos 2251 in 2009. This event, occurring at high speed in low Earth orbit (LEO), generated thousands of pieces of space debris, significantly increasing the risk of further collisions. The Iridium 33 debris cloud has impacted space traffic management and orbital debris mitigation strategies, making it a subject of ongoing study in space situational awareness.

Loading next visibility...
IRIDIUM 33 DEB details
Identifier
38477, 1997-051AAE
Orbit
LEO
Last TLE update1 month ago
Origin
Flag of USIridium (US)
ManufacturerUnknown
MissionSpacecraft
Bus & MotorUnknown
MassUnknown
Launch date (UTC)
1997-09-14 (27 years ago)
Launch vehicleUnknown
Launch site
Tyuratam Missile And Space Complex (TTMTR)
Object type
Payload
Rocket body
Debris
Shape & HBRUnknown
Radar Cross SectionSmall (<0.1 m²)

Expand to show TLE details & history

TLE from 1 month ago
0 IRIDIUM 33 DEB
1 38477U 97051AAE 24315.09186608  .00036230  00000-0  29584-1 0  9997
2 38477  86.4072 251.6412 0422319 302.9794  53.1420 13.54985939712814
Epoch: 2024-11-10T02:12Z
Definitive object data (Epoch: 2024-11-10T02:12:17.229Z)
Latitude-0°
Longitude168.83296°
Altitude877.426 km
Speed7.502 km/s
True Right ascension16h 46m 33s
True Declination0° 00' 00"
Sunlit
Object was in daylight at TLE epoch
Visualization TLE readout
Latitude2.52497°
Longitude-23.1469°
Altitude786.078 km
Speed7.591 km/s
Apparent Right ascension01h 32m 17s
Apparent Declination-48° 22' 11"
Sunlit
Object is in full shadow
Visualization observer readout
Local Sidereal Time05:34:32
Azimuth216.468° SW
Elevation-13.25°
Doppler factor1
Orbital elements
Apogee altitude1,364.788 km
Perigee altitude737.292 km
Semi-major axis7,429.177 km
Eccentricity0.0422319
Inclination86.4072°
RAAN251.6412°
Arg. of periapsis302.9794°
True anomaly57.13733°
Mean anomaly53.142°
Eccentric anomaly55.12719°
Mean motion3.38947 °/min
BSTAR0.029584
Orbital period106.21 mins
Loading maneuver chart data...

IRIDIUM 33 DEB Visibility forecast

Observer location: undefined°, undefined

Span
Click to sort rows by Start time (UTC) header in descending order
Start Az.
Max El. time (UTC)
Max El. Az.
Max El.
End time (UTC)
End Az.
14 mins2024-12-12 16:58:05.490Z156.267° SSE2024-12-12 17:05:05.490Z84.799° E38.333°2024-12-12 17:12:05.490Z13.865° NNE
12 mins2024-12-12 18:46:05.490Z227.492° WSW2024-12-12 18:52:05.490Z288.442° WNW28.877°2024-12-12 18:58:05.490Z341.971° N
8 mins2024-12-13 04:08:05.490Z29.263° NE2024-12-13 04:12:05.490Z79.937° E23.633°2024-12-13 04:16:05.490Z128.755° SE
9 mins2024-12-13 05:54:05.490Z337.274° NNW2024-12-13 05:58:05.490Z284.341° WNW32.502°2024-12-13 06:03:05.490Z211.104° SW
|